Regional Weather Roundup
Issued by NWS San Diego, CA

Current Version | Previous Version | Text Only | Print | Product List | Glossary On
Versions: 1 2 3 4 5 6 7 8 9 10 11 12 13 14 15 16 17 18 19 20 21 22 23 24 25 26 27 28 29 30 31 32 33 34 35 36 37 38 39 40 41 42 43 44 45 46 47 48 49 50
000
ASUS46 KSGX 232211
RWRSGX

SAN DIEGO HOURLY WEATHER ROUNDUP
NATIONAL WEATHER SERVICE SAN DIEGO CA
300 PM PDT THU MAY 23 2019

NOTE: "FAIR" INDICATES FEW OR NO CLOUDS BELOW 12,000 FEET WITH NO
SIGNIFICANT WEATHER AND/OR OBSTRUCTIONS TO VISIBILITY.

CAZ042-043-060-061-PZZ750-775-232300-

GREATER SAN DIEGO AREA

CITY           SKY/WX    TMP DP  RH WIND       PRES   REMARKS
SAN DIEGO AP   PTSUNNY   65  51  60 SW8       30.04S
NATIONAL CITY    N/A     68  56  66 NW8       30.03S
CHULA VISTA      N/A     66  54  65 W7        29.94S
IMPERIAL BEACH PTSUNNY   64  52  64 W9        30.03S
BROWN FIELD    PTSUNNY   67  50  54 W8        30.01F
MIRAMAR MCAS   PTSUNNY   69  49  48 SW10G18   30.01S
MONTGOMERY FLD CLOUDY    63  49  60 SW12G18   30.02S
GILLESPIE FLD  PTSUNNY   66  48  52 S9        30.02S

$$

NORTH SAN DIEGO COUNTY

CITY           SKY/WX    TMP DP  RH WIND       PRES   REMARKS
CAMP PENDLETON PTSUNNY   63  51  65 VRB5      30.02S
OCEANSIDE AP   NOT AVBL
OCEANSIDE HBR    N/A     63  56  77 CALM      30.05S
VISTA            N/A     64  55  70 SW1       30.00S
CARLSBAD       PTSUNNY   64  51  62 SW7       30.01S
DEL MAR          N/A     65  55  70 W3        30.04S
LA JOLLA SCRIP   N/A     63  56  77 SW7       30.02F
FALLBROOK      CLOUDY    61  50  67 SW7       30.03S
ESCONDIDO        N/A     64  52  65 W6        30.02S
SAN MARCOS       N/A     62  52  71 W6        30.06R
POWAY            N/A     64  52  64 SW1       30.04S

$$

EAST SAN DIEGO COUNTY

CITY           SKY/WX    TMP DP  RH WIND       PRES   REMARKS
RAMONA         CLOUDY    62  48  60 W9        30.02R
SANTEE LAKES     N/A     65  52  62 S9        29.98S
LA MESA          N/A     64  51  64 SW3       29.97S
JAMUL            N/A     64  54  69 CALM      30.03S
MT. LAGUNA OBS   N/A     41  41  99 SW12      30.06S
CAMPO            N/A     54  46  74 SW14      29.98S

$$

ORANGE COUNTY AND THE LOS ANGELES BASIN

CITY           SKY/WX    TMP DP  RH WIND       PRES   REMARKS
JOHN WAYNE AP  PTSUNNY   64  49  57 S9        30.01F
LAGUNA BEACH     N/A     65  56  71 S2        30.00S
LAKE FOREST FR   N/A     59  49  68 SW3       29.91S
HUNTINGTON BCH   N/A     64  56  74 S6        30.01F
LOS ALAMITOS   PTSUNNY   66  53  61 S9        30.00S
FULLERTON      CLOUDY    63  50  62 S10       29.99S
LONG BEACH     CLOUDY    65  50  58 S8        30.01R
L.A. AP        CLOUDY    62  51  67 SW9G18    30.00S
L.A. DOWNTOWN  CLOUDY    60  51  72 CALM      30.00R

$$

THE INLAND EMPIRE

CITY           SKY/WX    TMP DP  RH WIND       PRES   REMARKS
CORONA         CLOUDY    60  51  72 SW9       30.01S
CHINO          CLOUDY    60  53  77 SW10      30.02S
ONTARIO        CLOUDY    59  54  83 VRB5      30.01S
RIVERSIDE AP   CLOUDY    59  49  69 VRB3      30.01S
MORENO VALLEY    N/A     54  53  97 S2        28.12S
MARCH ARB      CLOUDY    56  55  93 S8        30.00S
PERRIS           N/A     55  53  94 S8        30.00S
HEMET EAST       N/A     52  48  86 CALM      30.04R
FRENCH VALLEY  CLOUDY    55  50  82 SW9       30.03R
TEMECULA         N/A     60  55  85 SW9       30.01S

$$

SAN BERNARDINO AND RIVERSIDE COUNTY MOUNTAINS

CITY           SKY/WX    TMP DP  RH WIND       PRES   REMARKS
BIG BEAR AP    CLOUDY    37  36  93 SW8       30.00S WCI  31
ANGELUS OAKS     N/A     40  38  93 CALM      30.01R

$$

SOUTHERN DESERT INCLUDING THE COACHELLA VALLEY

CITY           SKY/WX    TMP DP  RH WIND       PRES   REMARKS
PALM SPRINGS   MOSUNNY   75  47  36 N14       29.94S
THOUSAND PALMS   N/A     73  48  41 W8        29.89S
PALM DESERT      N/A     75  47  36 N12         N/A
THERMAL        MOSUNNY   80  43  26 NW10      29.88F
BORREGO AP     MOCLDY    72  41  33 SW17      29.93F
BLYTHE         MOSUNNY   77  39  25 SW17G23   29.91F
IMPERIAL AP    PTSUNNY   78  42  27 W8        29.90F
EL CENTRO NAS  PTSUNNY   78  37  22 W8        29.92F
YUMA AZ        SUNNY     78  36  21 SW8       29.91F
MEXICALI       MOSUNNY   79  30  17 SE3       29.91

$$

UPPER DESERT

CITY           SKY/WX    TMP DP  RH WIND       PRES   REMARKS
VICTORVILLE AP   N/A    N/A N/A N/A S17G25    29.91S
HESPERIA         N/A     56  45  65 W12       29.98S
APPLE VALLEY     N/A     59  46  61 NW24      29.97S
PALMDALE       PTSUNNY   61  44  53 SW23G33   29.91S
LANCASTER      PTSUNNY   61  46  57 SW24G33   29.93R
EDWARDS AFB    LGT RAIN  63  46  55 SW24      29.87F
DAGGETT        CLOUDY    64  44  48 VRB6      29.88F
29 PALMS N     CLOUDY    67  42  40 SW21      29.97F
NEEDLES        CLOUDY    74  39  28 S17G26    29.91S

$$

REGIONAL REPORTS

CITY           SKY/WX    TMP DP  RH WIND       PRES   REMARKS
SANTA BARBARA  CLOUDY    61  51  70 S7        29.97F
SANDBERG       LGT RAIN  45  44  97 S14G28    29.98R VSB<1/4
LAS VEGAS NV   CLOUDY    68  38  33 SW10G23   29.84R
PHOENIX AZ     MOSUNNY   73  35  25 NW9       29.94F
TIJUANA        PTSUNNY   64  50  59 W10       30.04S
ENSENADA NW      N/A     64  32  30 S9        29.98S

$$

OFFSHORE ISLANDS

CITY           SKY/WX    TMP DP  RH WIND       PRES   REMARKS
CATALINA ARPT  CLOUDY    57  50  77 SW6       30.01S
SAN CLEMENTE I PTSUNNY   63  53  70 SW6       30.02F
SAN NICOLAS IS PTSUNNY   62  50  64 SW13      29.99S

$$

MARINE AND OFFSHORE BUOY REPORTS

STATION/POSITION SKY/WX   TEMP    WIND        PRES    VSBY  SWELL
                          AIR SEA DIR/SP/G                  HT/PER/DIR
                          (F)     (DEG/KT/KT) (MB)    (MI)  (FT/S/D)
TANNER BANKS               59 60  230/  6/  8 1016.2S        10/290/11
S CLEMENTE BASIN           61 62  200/  6/  8 1016.6S         8/270/11
SAN NICOLAS IS.               59                N/A           7/300/12
SO. S. ROSA ISLA           56 57  290/  6/  8 1015.1F        10/300/11
W. S. BARBARA CH                              1014.9S
M. S. BARBARA CH           57 56   60/  6/  8 1015.7F         7/270/11
S. MONICA BASIN            59 60  200/  8/ 10 1015.5F         5/170/15
S PEDRO CHANNEL               59                N/A           3/270/12
CMP PENDLETON NS              61                N/A           3/210/14
OCEANSIDE OFFSHR              62                N/A           3/190/17
TORREY PINES OTR              62                N/A           3/190/17
SAN DIEGO BAY                 66              1016.4S
IMPERIAL BEACH                60                N/A           3/280/12
POINT LOMA SOUTH              63                N/A           5/290/11

$$





USA.gov is the U.S. government's official web portal to all federal, state and local government web resources and services.